Puyallup, WA
on Tuesday, February 5, 2013

Tuesday
Previous Day Next Day
Daily Summary
 ActualAverage (KSEA)Record (KSEA)
Temperature
Mean Temperature °F 43°F  
Max Temperature 50°F 49°F 62°F (1987)
Min Temperature 37°F 37°F 14°F (1989)
Degree Days
Heating Degree Days 22 22  
Month to date heating degree days 110  
Since 1 July heating degree days 2759  
Cooling Degree Days 0 0  
Month to date cooling degree days 0  
Year to date cooling degree days 0  
Moisture
Dew Point 40°F   
Average Humidity 87    
Maximum Humidity 100    
Minimum Humidity 62    
Precipitation
Precipitation 0.12 in 0.14 in 0.96 in (1961)
Month to date precipitation 0.67  
Year to date precipitation 6.24  
Snow
Snow 0.00 in in 1.70 in (1949)
Month to date snowfall  
Since 1 July snowfall  
Snow Depth in   
Wind
Wind Speed 3 mph   
Max Wind Speed 16 mph   
Max Gust Speed 24 mph   
Visibility 9 miles   
Events Rain   

Key: T is trace of precipitation, MM is missing value
Source: NWS Daily Summary
Time(PST)TemperatureDew PointHumidity Pressure Visibility Wind DirectionWind SpeedGust SpeedPrecipitationEvents Conditions
12:15 AM 37.4°F 37.4°F 100% 29.92 in 5.0 miles Calm Calm - N/A   Clear
12:35 AM 37.4°F 37.4°F 100% 29.91 in 7.0 miles Calm Calm - N/A   Clear
12:55 AM 37.4°F 37.4°F 100% 29.91 in 5.0 miles Calm Calm - N/A   Clear
1:15 AM 37.4°F 37.4°F 100% 29.90 in 3.0 miles Calm Calm - N/A   Clear
1:35 AM 37.4°F 37.4°F 100% 29.91 in 9.0 miles Calm Calm - N/A   Scattered Clouds
1:55 AM 39.2°F 39.2°F 100% 29.90 in 10.0 miles Calm Calm - N/A   Mostly Cloudy
2:15 AM 39.2°F 39.2°F 100% 29.90 in 9.0 miles Calm Calm - N/A   Mostly Cloudy
2:35 AM 39.2°F 39.2°F 100% 29.90 in 8.0 miles Calm Calm - N/A   Overcast
2:55 AM 41.0°F 41.0°F 100% 29.89 in 10.0 miles SSE 3.5 mph - N/A   Mostly Cloudy
3:15 AM 41.0°F 41.0°F 100% 29.88 in 10.0 miles SSE 3.5 mph - N/A   Mostly Cloudy
3:35 AM 39.2°F 39.2°F 100% 29.88 in 10.0 miles Calm Calm - N/A   Mostly Cloudy
3:55 AM 39.2°F 39.2°F 100% 29.88 in 9.0 miles Calm Calm - N/A   Mostly Cloudy
4:15 AM 41.0°F 41.0°F 100% 29.88 in 10.0 miles Calm Calm - N/A   Mostly Cloudy
4:35 AM 41.0°F 41.0°F 100% 29.88 in 9.0 miles Calm Calm - N/A Rain Light Rain
4:55 AM 41.0°F 41.0°F 100% 29.89 in 6.0 miles Calm Calm - N/A Rain Light Rain
5:15 AM 42.8°F 41.0°F 93% 29.89 in 6.0 miles Calm Calm - 0.01 in   Overcast
5:35 AM 41.0°F 41.0°F 100% 29.88 in 7.0 miles Calm Calm - 0.03 in Rain Light Rain
5:55 AM 41.0°F 41.0°F 100% 29.87 in 5.0 miles Calm Calm - 0.04 in Rain Light Rain
6:15 AM 41.0°F 41.0°F 100% 29.85 in 10.0 miles Calm Calm - N/A   Scattered Clouds
6:35 AM 41.0°F 41.0°F 100% 29.85 in 10.0 miles South 3.5 mph - N/A Rain Light Rain
6:55 AM 42.8°F 41.0°F 93% 29.85 in 10.0 miles Calm Calm - 0.01 in   Mostly Cloudy
7:15 AM 42.8°F 41.0°F 93% 29.86 in 10.0 miles South 5.8 mph - N/A   Mostly Cloudy
7:35 AM 44.6°F 41.0°F 87% 29.85 in 10.0 miles SSW 8.1 mph - N/A   Scattered Clouds
7:55 AM 44.6°F 39.2°F 81% 29.86 in 10.0 miles South 6.9 mph - N/A   Scattered Clouds
8:15 AM 44.6°F 39.2°F 81% 29.86 in 10.0 miles South 6.9 mph - N/A   Partly Cloudy
8:35 AM 44.6°F 39.2°F 81% 29.86 in 10.0 miles SSW 6.9 mph - N/A   Scattered Clouds
8:55 AM 46.4°F 39.2°F 76% 29.86 in 10.0 miles South 5.8 mph - N/A   Scattered Clouds
9:15 AM 46.4°F 39.2°F 76% 29.87 in 10.0 miles SSW 5.8 mph - N/A   Mostly Cloudy
9:35 AM 46.4°F 39.2°F 76% 29.87 in 10.0 miles SSW 4.6 mph - N/A   Mostly Cloudy
9:55 AM 48.2°F 41.0°F 76% 29.88 in 10.0 miles SSW 3.5 mph - N/A   Mostly Cloudy
10:15 AM 48.2°F 39.2°F 71% 29.88 in 10.0 miles South 5.8 mph - N/A   Mostly Cloudy
10:35 AM 48.2°F 39.2°F 71% 29.88 in 10.0 miles South 8.1 mph - N/A   Mostly Cloudy
10:55 AM 48.2°F 39.2°F 71% 29.89 in 10.0 miles South 5.8 mph - N/A   Mostly Cloudy
11:15 AM 50.0°F 39.2°F 66% 29.89 in 10.0 miles SSW 5.8 mph - N/A   Mostly Cloudy
11:35 AM 50.0°F 39.2°F 66% 29.89 in 10.0 miles SSW 6.9 mph 16.1 mph N/A   Mostly Cloudy
11:55 AM 50.0°F 39.2°F 66% 29.88 in 10.0 miles SW 9.2 mph - N/A   Mostly Cloudy
12:15 PM 50.0°F 37.4°F 62% 29.88 in 10.0 miles SW 9.2 mph 17.3 mph N/A   Mostly Cloudy
12:35 PM 50.0°F 37.4°F 62% 29.88 in 10.0 miles SW 10.4 mph 18.4 mph N/A   Mostly Cloudy
12:55 PM 50.0°F 39.2°F 66% 29.87 in 10.0 miles SW 10.4 mph 18.4 mph N/A   Overcast
1:15 PM 50.0°F 39.2°F 66% 29.87 in 10.0 miles SSW 9.2 mph 16.1 mph N/A   Mostly Cloudy
1:35 PM 50.0°F 39.2°F 66% 29.86 in 10.0 miles SW 6.9 mph - N/A   Mostly Cloudy
1:55 PM 50.0°F 39.2°F 66% 29.86 in 10.0 miles SSW 5.8 mph - N/A   Mostly Cloudy
2:15 PM 50.0°F 39.2°F 66% 29.87 in 10.0 miles SSW 11.5 mph - N/A   Mostly Cloudy
2:35 PM 50.0°F 39.2°F 66% 29.87 in 10.0 miles SW 11.5 mph 18.4 mph N/A   Mostly Cloudy
3:15 PM 48.2°F 39.2°F 71% 29.87 in 10.0 miles SSW 9.2 mph - N/A Rain Light Rain
3:35 PM 48.2°F 39.2°F 71% 29.87 in 10.0 miles SSW 4.6 mph - N/A   Overcast
3:55 PM 48.2°F 39.2°F 71% 29.86 in 10.0 miles SSW 5.8 mph - N/A   Overcast
4:35 PM 48.2°F 39.2°F 71% 29.85 in 10.0 miles SSW 4.6 mph - N/A Rain Light Rain
4:55 PM 48.2°F 39.2°F 71% 29.86 in 9.0 miles SW 5.8 mph - N/A Rain Light Rain
5:15 PM 46.4°F 41.0°F 81% 29.88 in 4.0 miles WSW 16.1 mph 24.2 mph 0.01 in Rain Light Rain
5:35 PM 44.6°F 41.0°F 87% 29.88 in 10.0 miles SSW 6.9 mph - 0.02 in   Scattered Clouds
5:55 PM 44.6°F 41.0°F 87% 29.88 in 10.0 miles SW 5.8 mph - 0.02 in   Partly Cloudy
6:15 PM 42.8°F 41.0°F 93% 29.89 in 10.0 miles SSW 6.9 mph - N/A   Scattered Clouds
6:35 PM 42.8°F 41.0°F 93% 29.89 in 10.0 miles Calm Calm - N/A   Mostly Cloudy
6:55 PM 42.8°F 39.2°F 87% 29.89 in 10.0 miles Calm Calm - N/A   Overcast
7:15 PM 42.8°F 39.2°F 87% 29.92 in 9.0 miles West 4.6 mph - N/A Rain Light Rain
7:35 PM 42.8°F 41.0°F 93% 29.92 in 9.0 miles SSW 5.8 mph - 0.01 in Rain Light Rain
7:55 PM 41.0°F 41.0°F 100% 29.92 in 8.0 miles Calm Calm - 0.02 in Rain Light Rain
8:15 PM 41.0°F 41.0°F 100% 29.92 in 9.0 miles Calm Calm - N/A Rain Light Rain
8:35 PM 41.0°F 41.0°F 100% 29.92 in 10.0 miles Calm Calm - 0.01 in   Mostly Cloudy
8:55 PM 41.0°F 41.0°F 100% 29.93 in 5.0 miles Calm Calm - 0.02 in Rain Light Rain
9:15 PM 41.0°F 41.0°F 100% 29.94 in 10.0 miles Calm Calm - N/A   Mostly Cloudy
9:35 PM 41.0°F 41.0°F 100% 29.94 in 10.0 miles SSW 3.5 mph - N/A   Scattered Clouds
9:55 PM 42.8°F 41.0°F 93% 29.94 in 10.0 miles SSW 4.6 mph - 0.01 in   Clear
10:15 PM 42.8°F 41.0°F 93% 29.95 in 10.0 miles SW 6.9 mph - N/A   Mostly Cloudy
10:35 PM 41.0°F 41.0°F 100% 29.95 in 10.0 miles SSW 4.6 mph - N/A   Overcast
10:55 PM 41.0°F 41.0°F 100% 29.96 in 10.0 miles SSW 3.5 mph - N/A   Overcast
11:15 PM 41.0°F 41.0°F 100% 29.96 in 6.0 miles Calm Calm - N/A Rain Light Rain
11:35 PM 41.0°F 41.0°F 100% 29.97 in 7.0 miles SW 5.8 mph - N/A Rain Light Rain
11:55 PM 41.0°F 41.0°F 100% 29.97 in 8.0 miles Calm Calm - N/A   Mostly Cloudy
Moon Phase
Feb. 05 Feb. 10 Feb. 17 Feb. 25 Mar. 04
Sunrise:07:28 AM (PST) Moon Rise:03:23 AM (PST)2/5
Sunset:05:18 PM (PST) Moon Set:12:33 PM (PST)2/5

Copyright © 2014 The Weather Underground, Inc.